Regional Weather Roundup
Issued by NWS

Home | Current Version | Previous Version | Graphics & Text | Print | Product List | Glossary On
Versions: 1 2 3 4 5 6 7 8 9 10 11 12 13 14 15 16 17 18 19 20 21 22 23 24 25 26 27 28 29 30 31 32 33 34 35 36 37 38 39 40 41 42 43 44 45 46 47 48 49 50
285
ASUS43 KLOT 252004
RWRIL

ILLINOIS REGIONAL WEATHER ROUNDUP
NATIONAL WEATHER SERVICE CHICAGO/ROMEOVILLE IL
300 PM CDT SUN JUN 25 2017

NOTE: "FAIR" INDICATES FEW OR NO CLOUDS BELOW 12,000 FEET WITH NO
SIGNIFICANT WEATHER AND/OR OBSTRUCTIONS TO VISIBILITY.

* THESE STATIONS ARE NOT UNDER NWS QUALITY CONTROL. THEY ALSO MAY NOT
  REPORT WEATHER SUCH AS PRECIPITATION OR FOG.

ILZ001-002-007-009-015-016-024-252100-
NORTHWEST ILLINOIS

CITY           SKY/WX    TMP DP  RH WIND       PRES   REMARKS
MOLINE         CLOUDY    68  48  48 NW18      30.16F
STERLING*      PTSUNNY   69  52  54 W20G26    30.14F
SAVANNA*       CLOUDY    64  49  58 NW15G24   30.16S
$$

ILZ003-004-008-010-011-017-018-252100-
NORTH CENTRAL ILLINOIS

CITY           SKY/WX    TMP DP  RH WIND       PRES   REMARKS
ROCKFORD       PTSUNNY   68  49  50 W15G23    30.12F
FREEPORT*      PTSUNNY   66  49  54 W20G25    30.15S
ROCHELLE*      CLOUDY    67  50  53 W20G26    30.13F
DE KALB*       CLOUDY    67  49  53 W22       30.12S
PERU*          PTSUNNY   68  48  48 W16G25    30.14F
$$

ILZ005-006-012>014-019>023-252100-
NORTHEAST ILLINOIS

CITY           SKY/WX    TMP DP  RH WIND       PRES   REMARKS
CHICAGO-OHARE  PTSUNNY   70  45  40 W22       30.09R
CHICAGO-MIDWAY PTSUNNY   71  46  40 W17       30.09F
AURORA         CLOUDY    69  48  47 W22       30.12S
LANSING*       CLOUDY    71  42  35 W14G23    30.11S
JOLIET*        CLOUDY    72  46  39 W12       30.11F
WAUKEGAN       PTSUNNY   70  50  49 W8G20     30.06F
DUPAGE AIRPORT PTSUNNY   70  48  45 W13G26    30.10S
WHEELING       PTSUNNY   69  46  43 W17       30.09F
MORRIS*        CLOUDY    70  45  40 W21       30.11S
ROMEOVILLE*    CLOUDY    70  41  34 W13       30.11S
NORTHERLY ISL    N/A     70  44  39 NW8         N/A
$$

LMZ740>746-252100-
SOUTHERN LAKE MICHIGAN

STATION/POSITION SKY/WX   TEMP    WIND        PRES    VSBY  WAVE
                          AIR SEA DIR/SP/G                  HT/PER
                          (F)     (DEG/KT/KT) (MB)    (MI)  (FT/S)
SOUTHERN BUOY              62 61  290/ 10/ 12 1018.2          2/ 4
WILMETTE HARBOR            67 65  290/ 10/ 14   N/A           2/ 3
HARRISON CRIB              68     270/ 19/ 21   N/A
BURNHAM HARBOR             69                   N/A
CALUMET HARBOR             70     230/  6/ 13 1018.5F
BURNS HARBOR               67     280/ 12/ 15 1019.6R
MICHIGAN CITY              67     260/ 10/ 11   N/A
MICHIGAN CITY 6N           66 67  270/  8/ 10   N/A           2/ 4
ST. JOSEPH                 65 69  290/ 10/ 12 1019.1F         3/ 4
$$

ILZ025>027-034>036-040-047-049-050-058-095>099-252100-
WEST-CENTRAL ILLINOIS

CITY           SKY/WX    TMP DP  RH WIND       PRES   REMARKS
QUINCY         SUNNY     73  46  38 NW20G30   30.21S
GALESBURG*     PTSUNNY   70  49  46 NW16G23   30.17F
MACOMB*        MOSUNNY   71  46  40 W10G21    30.20F
JACKSONVILLE*  MOSUNNY   75  46  35 NW20G25   30.18S
PITTSFIELD*    SUNNY     75  47  36 NW18G24   30.20S
$$

ILZ028>032-037-038-041>044-048-051>054-059>061-252100-
CENTRAL ILLINOIS

CITY           SKY/WX    TMP DP  RH WIND       PRES   REMARKS
PONTIAC        CLOUDY    71  46  40 NW17G23   30.15S
BLOOMINGTON    PTSUNNY   73  47  39 NW21G26   30.16S
DECATUR        MOSUNNY   76  46  34 W15G23    30.15F
PEORIA         MOSUNNY   72  46  39 W15G29    30.16F
LACON*         PTSUNNY   71  49  45 W12G18    30.14F
LINCOLN*       PTSUNNY   75  47  37 NW10G18   30.16S
SPRINGFIELD    SUNNY     77  46  33 W15G23    30.16F
TAYLORVILLE    MOSUNNY   76  46  34 W13G23    30.16F
$$

ILZ033-039-045-046-055>057-062-063-252100-
EAST-CENTRAL ILLINOIS

CITY           SKY/WX    TMP DP  RH WIND       PRES   REMARKS
CHAMPAIGN      SUNNY     76  43  30 W14G23    30.14F
RANTOUL*       PTSUNNY   75  48  37 W17G25    30.14S
MATTOON        SUNNY     76  48  37 NW14G23   30.15F
PARIS*         SUNNY     75  48  38 W13G21    30.15F
$$

ILZ079-100>102-252100-
SOUTHWEST ILLINOIS

CITY           SKY/WX    TMP DP  RH WIND       PRES   REMARKS
ALTON          MOSUNNY   77  52  41 W15G26    30.19F
BELLEVILLE     SUNNY     82  47  28 W15G28    30.18F HX  81
CAHOKIA*       SUNNY     84  43  23 NW20G28   30.18F HX  81
SPARTA*        SUNNY     83  48  29 NW10G17   30.19F HX  81
$$

ILZ064>066-069>071-074>076-080>082-084>086-088>090-092>094-252100-
SOUTH-CENTRAL ILLINOIS

CITY           SKY/WX    TMP DP  RH WIND       PRES   REMARKS
CARBONDALE     MOSUNNY   83  49  30 W12G18    30.18F HX  81
CAIRO*         SUNNY     83  54  37 W9        30.20S HX  82
EFFINGHAM*     SUNNY     80  47  30 W16G23    30.17F
MARION         MOSUNNY   82  48  30 W12       30.19F HX  81
MT. VERNON     SUNNY     80  48  32 W12G21    30.18
CENTRALIA*     SUNNY     82  51  33 W18G25    30.16F HX  81
SALEM*         SUNNY     81  43  26 NW18      30.18S
METROPOLIS*    SUNNY     84  55  36 W9        30.20F HX  83
$$

ILZ067-068-072-073-078-083-087-091-252100-
SOUTHEAST ILLINOIS

CITY           SKY/WX    TMP DP  RH WIND       PRES   REMARKS
LAWRENCEVILLE  MOSUNNY   80  48  32 NW21      30.15F
FLORA*         SUNNY     82  44  26 NW17G26   30.17F HX  80
FAIRFIELD*     SUNNY     80  47  31 W7        30.16F
HARRISBURG*    MOSUNNY   83  53  35 NW13G22   30.18S HX  82
ROBINSON*      SUNNY     77  49  36 W13G21    30.16F
CARMI*         SUNNY     82  51  34 W13G21    30.15F HX  81
$$

ABBREVIATIONS USED IN REMARKS
   TC - TEMPERATURE IN CELSIUS
  WCI - WIND CHILL INDEX
   HX - HEAT INDEX
  VSB - VISIBILITY
$$





USA.gov is the U.S. government's official web portal to all federal, state and local government web resources and services.